owner,sensor,date,latitude,longitude,vertical_datum,sea_water_temperature,qcFlag
Chevron,ioos:station:wmo:42876:1,2021-10-01T00:00:00Z,0.0000,0.0000,2.3,28.7,11111222
Chevron,ioos:station:wmo:42876:1,2021-10-01T00:10:00Z,0.0000,0.0000,2.5,28.7,11111222
Chevron,ioos:station:wmo:42876:1,2021-10-01T00:20:00Z,0.0000,0.0000,2.4,28.7,11111222
Chevron,ioos:station:wmo:42876:1,2021-10-01T00:30:00Z,0.0000,0.0000,2.7,28.6,11111222
Chevron,ioos:station:wmo:42876:1,2021-10-01T00:40:00Z,0.0000,0.0000,2.8,28.6,11111222
Chevron,ioos:station:wmo:42876:1,2021-10-01T00:50:00Z,0.0000,0.0000,2.7,28.6,11111222
Chevron,ioos:station:wmo:42876:1,2021-10-01T01:00:00Z,0.0000,0.0000,2.6,28.6,11111222
Chevron,ioos:station:wmo:42876:1,2021-10-01T01:10:00Z,0.0000,0.0000,2.4,28.6,11111222
Chevron,ioos:station:wmo:42876:1,2021-10-01T01:20:00Z,0.0000,0.0000,2.7,28.6,11111222
Chevron,ioos:station:wmo:42876:1,2021-10-01T01:30:00Z,0.0000,0.0000,2.7,28.6,11111222
Chevron,ioos:station:wmo:42876:1,2021-10-01T01:40:00Z,0.0000,0.0000,2.6,28.6,11111222
Chevron,ioos:station:wmo:42876:1,2021-10-01T01:50:00Z,0.0000,0.0000,2.4,28.6,11111222
Chevron,ioos:station:wmo:42876:1,2021-10-01T02:00:00Z,0.0000,0.0000,2.4,28.6,11111222
Chevron,ioos:station:wmo:42876:1,2021-10-01T02:10:00Z,0.0000,0.0000,2.8,28.6,11111222
Chevron,ioos:station:wmo:42876:1,2021-10-01T02:20:00Z,0.0000,0.0000,2.4,28.6,11111222
Chevron,ioos:station:wmo:42876:1,2021-10-01T02:30:00Z,0.0000,0.0000,2.7,28.6,11111222
Chevron,ioos:station:wmo:42876:1,2021-10-01T02:40:00Z,0.0000,0.0000,2.8,28.5,11111222
Chevron,ioos:station:wmo:42876:1,2021-10-01T02:50:00Z,0.0000,0.0000,2.8,28.5,11111222
Chevron,ioos:station:wmo:42876:1,2021-10-01T03:00:00Z,0.0000,0.0000,2.7,28.5,11111222
Chevron,ioos:station:wmo:42876:1,2021-10-01T03:10:00Z,0.0000,0.0000,2.8,28.5,11111222
Chevron,ioos:station:wmo:42876:1,2021-10-01T03:20:00Z,0.0000,0.0000,3.0,28.5,11111222
Chevron,ioos:station:wmo:42876:1,2021-10-01T03:30:00Z,0.0000,0.0000,2.8,28.5,11111222
Chevron,ioos:station:wmo:42876:1,2021-10-01T03:40:00Z,0.0000,0.0000,2.9,28.6,11111222
Chevron,ioos:station:wmo:42876:1,2021-10-01T03:50:00Z,0.0000,0.0000,2.8,28.6,11111222
Chevron,ioos:station:wmo:42876:1,2021-10-01T04:00:00Z,0.0000,0.0000,2.5,28.5,11111222
Chevron,ioos:station:wmo:42876:1,2021-10-01T04:10:00Z,0.0000,0.0000,2.7,28.5,11111222
Chevron,ioos:station:wmo:42876:1,2021-10-01T04:20:00Z,0.0000,0.0000,2.7,28.5,11111222
Chevron,ioos:station:wmo:42876:1,2021-10-01T04:30:00Z,0.0000,0.0000,2.3,28.5,11111222
Chevron,ioos:station:wmo:42876:1,2021-10-01T04:40:00Z,0.0000,0.0000,2.9,28.5,11111222
Chevron,ioos:station:wmo:42876:1,2021-10-01T04:50:00Z,0.0000,0.0000,2.6,28.6,11111222
Chevron,ioos:station:wmo:42876:1,2021-10-01T05:00:00Z,0.0000,0.0000,2.7,28.5,11111222
Chevron,ioos:station:wmo:42876:1,2021-10-01T05:10:00Z,0.0000,0.0000,2.3,28.5,11111222
Chevron,ioos:station:wmo:42876:1,2021-10-01T05:20:00Z,0.0000,0.0000,2.4,28.5,11111222
Chevron,ioos:station:wmo:42876:1,2021-10-01T05:30:00Z,0.0000,0.0000,2.3,28.5,11111222
Chevron,ioos:station:wmo:42876:1,2021-10-01T05:40:00Z,0.0000,0.0000,2.4,28.5,11111222
Chevron,ioos:station:wmo:42876:1,2021-10-01T05:50:00Z,0.0000,0.0000,2.4,28.5,11111222
Chevron,ioos:station:wmo:42876:1,2021-10-01T06:00:00Z,0.0000,0.0000,2.8,28.5,11111222
Chevron,ioos:station:wmo:42876:1,2021-10-01T06:10:00Z,0.0000,0.0000,2.4,28.5,11111222
Chevron,ioos:station:wmo:42876:1,2021-10-01T06:20:00Z,0.0000,0.0000,2.4,28.5,11111222
Chevron,ioos:station:wmo:42876:1,2021-10-01T06:30:00Z,0.0000,0.0000,2.4,28.5,11111222
Chevron,ioos:station:wmo:42876:1,2021-10-01T06:40:00Z,0.0000,0.0000,2.1,28.5,11111222
Chevron,ioos:station:wmo:42876:1,2021-10-01T06:50:00Z,0.0000,0.0000,2.1,28.5,11111222
Chevron,ioos:station:wmo:42876:1,2021-10-01T07:00:00Z,0.0000,0.0000,2.4,28.5,11111222
Chevron,ioos:station:wmo:42876:1,2021-10-01T07:10:00Z,0.0000,0.0000,2.2,28.5,11111222
Chevron,ioos:station:wmo:42876:1,2021-10-01T07:20:00Z,0.0000,0.0000,2.1,28.5,11111222
Chevron,ioos:station:wmo:42876:1,2021-10-01T07:30:00Z,0.0000,0.0000,2.0,28.5,11111222
Chevron,ioos:station:wmo:42876:1,2021-10-01T07:40:00Z,0.0000,0.0000,2.5,28.5,11111222
Chevron,ioos:station:wmo:42876:1,2021-10-01T07:50:00Z,0.0000,0.0000,2.6,28.5,11111222
Chevron,ioos:station:wmo:42876:1,2021-10-01T08:00:00Z,0.0000,0.0000,2.7,28.5,11111222
Chevron,ioos:station:wmo:42876:1,2021-10-01T08:10:00Z,0.0000,0.0000,2.7,28.5,11111222
Chevron,ioos:station:wmo:42876:1,2021-10-01T08:20:00Z,0.0000,0.0000,2.8,28.5,11111222
Chevron,ioos:station:wmo:42876:1,2021-10-01T08:30:00Z,0.0000,0.0000,2.3,28.5,11111222
Chevron,ioos:station:wmo:42876:1,2021-10-01T08:40:00Z,0.0000,0.0000,2.5,28.5,11111222
Chevron,ioos:station:wmo:42876:1,2021-10-01T08:50:00Z,0.0000,0.0000,2.6,28.5,11111222
Chevron,ioos:station:wmo:42876:1,2021-10-01T09:00:00Z,0.0000,0.0000,2.7,28.5,11111222
Chevron,ioos:station:wmo:42876:1,2021-10-01T09:10:00Z,0.0000,0.0000,2.4,28.5,11111222
Chevron,ioos:station:wmo:42876:1,2021-10-01T09:20:00Z,0.0000,0.0000,2.4,28.5,11111222
Chevron,ioos:station:wmo:42876:1,2021-10-01T09:30:00Z,0.0000,0.0000,2.6,28.5,11111222
Chevron,ioos:station:wmo:42876:1,2021-10-01T09:40:00Z,0.0000,0.0000,2.5,28.5,11111222
Chevron,ioos:station:wmo:42876:1,2021-10-01T09:50:00Z,0.0000,0.0000,2.4,28.5,11111222
Chevron,ioos:station:wmo:42876:1,2021-10-01T10:00:00Z,0.0000,0.0000,2.3,28.5,11111222
Chevron,ioos:station:wmo:42876:1,2021-10-01T10:10:00Z,0.0000,0.0000,2.1,28.5,11111222
Chevron,ioos:station:wmo:42876:1,2021-10-01T10:20:00Z,0.0000,0.0000,2.3,28.5,11111222
Chevron,ioos:station:wmo:42876:1,2021-10-01T10:30:00Z,0.0000,0.0000,2.1,28.5,11111222
Chevron,ioos:station:wmo:42876:1,2021-10-01T10:40:00Z,0.0000,0.0000,2.2,28.6,11111222
Chevron,ioos:station:wmo:42876:1,2021-10-01T10:50:00Z,0.0000,0.0000,2.3,28.6,11111222
Chevron,ioos:station:wmo:42876:1,2021-10-01T11:00:00Z,0.0000,0.0000,2.3,28.5,11111222
Chevron,ioos:station:wmo:42876:1,2021-10-01T11:10:00Z,0.0000,0.0000,2.1,28.5,11111222
Chevron,ioos:station:wmo:42876:1,2021-10-01T11:20:00Z,0.0000,0.0000,2.1,28.5,11111222
Chevron,ioos:station:wmo:42876:1,2021-10-01T11:30:00Z,0.0000,0.0000,2.0,28.5,11111222
Chevron,ioos:station:wmo:42876:1,2021-10-01T11:40:00Z,0.0000,0.0000,2.0,28.5,11111222
Chevron,ioos:station:wmo:42876:1,2021-10-01T11:50:00Z,0.0000,0.0000,2.4,28.5,11111222
Chevron,ioos:station:wmo:42876:1,2021-10-01T12:00:00Z,0.0000,0.0000,2.3,28.4,11111222
Chevron,ioos:station:wmo:42876:1,2021-10-01T12:10:00Z,0.0000,0.0000,2.2,28.4,11111222
Chevron,ioos:station:wmo:42876:1,2021-10-01T12:20:00Z,0.0000,0.0000,2.4,28.5,11111222
Chevron,ioos:station:wmo:42876:1,2021-10-01T12:30:00Z,0.0000,0.0000,2.5,28.5,11111222
Chevron,ioos:station:wmo:42876:1,2021-10-01T12:40:00Z,0.0000,0.0000,2.7,28.5,11111222
Chevron,ioos:station:wmo:42876:1,2021-10-01T12:50:00Z,0.0000,0.0000,2.6,28.5,11111222
Chevron,ioos:station:wmo:42876:1,2021-10-01T13:00:00Z,0.0000,0.0000,2.1,28.5,11111222
Chevron,ioos:station:wmo:42876:1,2021-10-01T13:10:00Z,0.0000,0.0000,2.5,28.5,11111222
Chevron,ioos:station:wmo:42876:1,2021-10-01T13:20:00Z,0.0000,0.0000,2.2,28.5,11111222
Chevron,ioos:station:wmo:42876:1,2021-10-01T13:30:00Z,0.0000,0.0000,2.3,28.5,11111222
Chevron,ioos:station:wmo:42876:1,2021-10-01T13:40:00Z,0.0000,0.0000,2.6,28.5,11111222
Chevron,ioos:station:wmo:42876:1,2021-10-01T13:50:00Z,0.0000,0.0000,2.3,28.6,11111222
Chevron,ioos:station:wmo:42876:1,2021-10-01T14:00:00Z,0.0000,0.0000,2.0,28.6,11111222
Chevron,ioos:station:wmo:42876:1,2021-10-01T14:10:00Z,0.0000,0.0000,1.9,28.6,11111222
Chevron,ioos:station:wmo:42876:1,2021-10-01T14:20:00Z,0.0000,0.0000,1.9,28.6,11111222
Chevron,ioos:station:wmo:42876:1,2021-10-01T14:30:00Z,0.0000,0.0000,1.9,28.6,11111222
Chevron,ioos:station:wmo:42876:1,2021-10-01T14:40:00Z,0.0000,0.0000,2.0,28.6,11111222
Chevron,ioos:station:wmo:42876:1,2021-10-01T14:50:00Z,0.0000,0.0000,2.1,28.6,11111222
Chevron,ioos:station:wmo:42876:1,2021-10-01T15:00:00Z,0.0000,0.0000,2.3,28.6,11111222
Chevron,ioos:station:wmo:42876:1,2021-10-01T15:10:00Z,0.0000,0.0000,2.9,28.6,11111222
Chevron,ioos:station:wmo:42876:1,2021-10-01T15:20:00Z,0.0000,0.0000,2.4,28.6,11111222
Chevron,ioos:station:wmo:42876:1,2021-10-01T15:30:00Z,0.0000,0.0000,2.3,28.6,11111222
Chevron,ioos:station:wmo:42876:1,2021-10-01T15:40:00Z,0.0000,0.0000,2.1,28.6,11111222
Chevron,ioos:station:wmo:42876:1,2021-10-01T15:50:00Z,0.0000,0.0000,2.3,28.6,11111222
Chevron,ioos:station:wmo:42876:1,2021-10-01T16:00:00Z,0.0000,0.0000,2.4,28.6,11111222
Chevron,ioos:station:wmo:42876:1,2021-10-01T16:10:00Z,0.0000,0.0000,2.4,28.6,11111222
Chevron,ioos:station:wmo:42876:1,2021-10-01T16:20:00Z,0.0000,0.0000,2.5,28.6,11111222
Chevron,ioos:station:wmo:42876:1,2021-10-01T16:30:00Z,0.0000,0.0000,2.4,28.6,11111222
Chevron,ioos:station:wmo:42876:1,2021-10-01T16:40:00Z,0.0000,0.0000,2.4,28.6,11111222
Chevron,ioos:station:wmo:42876:1,2021-10-01T16:50:00Z,0.0000,0.0000,2.4,28.6,11111222
Chevron,ioos:station:wmo:42876:1,2021-10-01T17:00:00Z,0.0000,0.0000,2.6,28.6,11111222
Chevron,ioos:station:wmo:42876:1,2021-10-01T17:10:00Z,0.0000,0.0000,2.3,28.6,11111222
Chevron,ioos:station:wmo:42876:1,2021-10-01T17:20:00Z,0.0000,0.0000,2.5,28.6,11111222
Chevron,ioos:station:wmo:42876:1,2021-10-01T17:30:00Z,0.0000,0.0000,2.3,28.6,11111222
Chevron,ioos:station:wmo:42876:1,2021-10-01T17:40:00Z,0.0000,0.0000,2.2,28.6,11111222
Chevron,ioos:station:wmo:42876:1,2021-10-01T17:50:00Z,0.0000,0.0000,2.5,28.7,11111222
Chevron,ioos:station:wmo:42876:1,2021-10-01T18:00:00Z,0.0000,0.0000,2.1,28.7,11111222
Chevron,ioos:station:wmo:42876:1,2021-10-01T18:10:00Z,0.0000,0.0000,2.4,28.7,11111222
Chevron,ioos:station:wmo:42876:1,2021-10-01T18:20:00Z,0.0000,0.0000,2.5,28.7,11111222
Chevron,ioos:station:wmo:42876:1,2021-10-01T18:30:00Z,0.0000,0.0000,2.1,28.7,11111222
Chevron,ioos:station:wmo:42876:1,2021-10-01T18:40:00Z,0.0000,0.0000,2.2,28.7,11111222
Chevron,ioos:station:wmo:42876:1,2021-10-01T18:50:00Z,0.0000,0.0000,2.3,28.7,11111222
Chevron,ioos:station:wmo:42876:1,2021-10-01T19:00:00Z,0.0000,0.0000,2.4,28.7,11111222
Chevron,ioos:station:wmo:42876:1,2021-10-01T19:10:00Z,0.0000,0.0000,2.0,28.7,11111222
Chevron,ioos:station:wmo:42876:1,2021-10-01T19:20:00Z,0.0000,0.0000,2.3,28.7,11111222
Chevron,ioos:station:wmo:42876:1,2021-10-01T19:30:00Z,0.0000,0.0000,2.4,28.7,11111222
Chevron,ioos:station:wmo:42876:1,2021-10-01T19:40:00Z,0.0000,0.0000,2.3,28.7,11111222
Chevron,ioos:station:wmo:42876:1,2021-10-01T19:50:00Z,0.0000,0.0000,2.3,28.7,11111222
Chevron,ioos:station:wmo:42876:1,2021-10-01T20:00:00Z,0.0000,0.0000,2.5,28.7,11111222
Chevron,ioos:station:wmo:42876:1,2021-10-01T20:10:00Z,0.0000,0.0000,2.4,28.7,11111222
Chevron,ioos:station:wmo:42876:1,2021-10-01T20:20:00Z,0.0000,0.0000,2.5,28.7,11111222
Chevron,ioos:station:wmo:42876:1,2021-10-01T20:30:00Z,0.0000,0.0000,2.7,28.7,11111222
Chevron,ioos:station:wmo:42876:1,2021-10-01T20:40:00Z,0.0000,0.0000,2.5,28.7,11111222
Chevron,ioos:station:wmo:42876:1,2021-10-01T20:50:00Z,0.0000,0.0000,2.5,28.7,11111222
Chevron,ioos:station:wmo:42876:1,2021-10-01T21:00:00Z,0.0000,0.0000,2.6,28.7,11111222
Chevron,ioos:station:wmo:42876:1,2021-10-01T21:10:00Z,0.0000,0.0000,2.5,28.7,11111222
Chevron,ioos:station:wmo:42876:1,2021-10-01T21:20:00Z,0.0000,0.0000,2.6,28.7,11111222
Chevron,ioos:station:wmo:42876:1,2021-10-01T21:30:00Z,0.0000,0.0000,2.7,28.7,11111222
Chevron,ioos:station:wmo:42876:1,2021-10-01T21:40:00Z,0.0000,0.0000,2.5,28.7,11111222
Chevron,ioos:station:wmo:42876:1,2021-10-01T21:50:00Z,0.0000,0.0000,2.6,28.7,11111222
Chevron,ioos:station:wmo:42876:1,2021-10-01T22:00:00Z,0.0000,0.0000,2.7,28.7,11111222
Chevron,ioos:station:wmo:42876:1,2021-10-01T22:10:00Z,0.0000,0.0000,2.6,28.7,11111222
Chevron,ioos:station:wmo:42876:1,2021-10-01T22:20:00Z,0.0000,0.0000,2.6,28.7,11111222
Chevron,ioos:station:wmo:42876:1,2021-10-01T22:30:00Z,0.0000,0.0000,2.9,28.7,11111222
Chevron,ioos:station:wmo:42876:1,2021-10-01T22:40:00Z,0.0000,0.0000,2.8,28.7,11111222
Chevron,ioos:station:wmo:42876:1,2021-10-01T22:50:00Z,0.0000,0.0000,2.6,28.7,11111222
Chevron,ioos:station:wmo:42876:1,2021-10-01T23:00:00Z,0.0000,0.0000,2.6,28.6,11111222
Chevron,ioos:station:wmo:42876:1,2021-10-01T23:10:00Z,0.0000,0.0000,2.2,28.6,11111222
Chevron,ioos:station:wmo:42876:1,2021-10-01T23:20:00Z,0.0000,0.0000,2.5,28.6,11111222
Chevron,ioos:station:wmo:42876:1,2021-10-01T23:30:00Z,0.0000,0.0000,2.5,28.6,11111222
Chevron,ioos:station:wmo:42876:1,2021-10-01T23:40:00Z,0.0000,0.0000,2.6,28.6,11111222
Chevron,ioos:station:wmo:42876:1,2021-10-01T23:50:00Z,0.0000,0.0000,2.6,28.6,11111222
Chevron,ioos:station:wmo:42876:1,2021-10-02T00:47:00Z,0.0000,0.0000,2.6,28.6,11111222
Chevron,ioos:station:wmo:42876:1,2021-10-02T00:57:00Z,0.0000,0.0000,2.3,28.6,11111222
Chevron,ioos:station:wmo:42876:1,2021-10-02T01:07:00Z,0.0000,0.0000,2.6,28.6,11111222
Chevron,ioos:station:wmo:42876:1,2021-10-02T01:17:00Z,0.0000,0.0000,2.3,28.6,11111222
Chevron,ioos:station:wmo:42876:1,2021-10-02T01:27:00Z,0.0000,0.0000,2.9,28.6,11111222
Chevron,ioos:station:wmo:42876:1,2021-10-02T01:37:00Z,0.0000,0.0000,2.6,28.6,11111222
Chevron,ioos:station:wmo:42876:1,2021-10-02T01:47:00Z,0.0000,0.0000,2.5,28.6,11111222
Chevron,ioos:station:wmo:42876:1,2021-10-02T01:57:00Z,0.0000,0.0000,2.3,28.6,11111222
Chevron,ioos:station:wmo:42876:1,2021-10-02T02:07:00Z,0.0000,0.0000,2.8,28.6,11111222
Chevron,ioos:station:wmo:42876:1,2021-10-02T02:17:00Z,0.0000,0.0000,2.7,28.6,11111222
Chevron,ioos:station:wmo:42876:1,2021-10-02T02:27:00Z,0.0000,0.0000,2.3,28.6,11111222
Chevron,ioos:station:wmo:42876:1,2021-10-02T02:37:00Z,0.0000,0.0000,2.4,28.6,11111222
Chevron,ioos:station:wmo:42876:1,2021-10-02T02:47:00Z,0.0000,0.0000,2.7,28.6,11111222
Chevron,ioos:station:wmo:42876:1,2021-10-02T02:57:00Z,0.0000,0.0000,2.7,28.6,11111222
Chevron,ioos:station:wmo:42876:1,2021-10-02T03:07:00Z,0.0000,0.0000,2.7,28.6,11111222
Chevron,ioos:station:wmo:42876:1,2021-10-02T03:17:00Z,0.0000,0.0000,2.6,28.6,11111222
Chevron,ioos:station:wmo:42876:1,2021-10-02T03:27:00Z,0.0000,0.0000,2.7,28.6,11111222
Chevron,ioos:station:wmo:42876:1,2021-10-02T03:37:00Z,0.0000,0.0000,2.4,28.6,11111222
Chevron,ioos:station:wmo:42876:1,2021-10-02T03:47:00Z,0.0000,0.0000,2.4,28.6,11111222
Chevron,ioos:station:wmo:42876:1,2021-10-02T03:57:00Z,0.0000,0.0000,2.5,28.6,11111222
Chevron,ioos:station:wmo:42876:1,2021-10-02T04:07:00Z,0.0000,0.0000,6.6,28.6,11111222
Chevron,ioos:station:wmo:42876:1,2021-10-02T04:17:00Z,0.0000,0.0000,13.2,28.6,11111222
Chevron,ioos:station:wmo:42876:1,2021-10-02T04:27:00Z,0.0000,0.0000,13.2,28.6,11111222
Chevron,ioos:station:wmo:42876:1,2021-10-02T04:37:00Z,0.0000,0.0000,13.0,28.6,11111222
Chevron,ioos:station:wmo:42876:1,2021-10-02T04:47:00Z,0.0000,0.0000,13.3,28.6,11111222
Chevron,ioos:station:wmo:42876:1,2021-10-02T04:57:00Z,0.0000,0.0000,13.2,28.6,11111222
Chevron,ioos:station:wmo:42876:1,2021-10-02T05:07:00Z,0.0000,0.0000,13.4,28.6,11111222
Chevron,ioos:station:wmo:42876:1,2021-10-02T05:17:00Z,0.0000,0.0000,13.4,28.6,11111222
Chevron,ioos:station:wmo:42876:1,2021-10-02T05:27:00Z,0.0000,0.0000,13.0,28.6,11111222
Chevron,ioos:station:wmo:42876:1,2021-10-02T05:37:00Z,0.0000,0.0000,13.1,28.6,11111222
Chevron,ioos:station:wmo:42876:1,2021-10-02T05:47:00Z,0.0000,0.0000,13.2,28.6,11111222
Chevron,ioos:station:wmo:42876:1,2021-10-02T05:57:00Z,0.0000,0.0000,13.1,28.6,11111222
Chevron,ioos:station:wmo:42876:1,2021-10-02T06:07:00Z,0.0000,0.0000,13.3,28.6,11111222
Chevron,ioos:station:wmo:42876:1,2021-10-02T06:17:00Z,0.0000,0.0000,13.0,28.6,11111222
Chevron,ioos:station:wmo:42876:1,2021-10-02T06:27:00Z,0.0000,0.0000,12.8,28.6,11111222
Chevron,ioos:station:wmo:42876:1,2021-10-02T06:37:00Z,0.0000,0.0000,13.2,28.6,11111222
Chevron,ioos:station:wmo:42876:1,2021-10-02T06:47:00Z,0.0000,0.0000,13.2,28.6,11111222
Chevron,ioos:station:wmo:42876:1,2021-10-02T06:57:00Z,0.0000,0.0000,13.3,28.6,11111222
Chevron,ioos:station:wmo:42876:1,2021-10-02T07:07:00Z,0.0000,0.0000,12.9,28.6,11111222
Chevron,ioos:station:wmo:42876:1,2021-10-02T07:17:00Z,0.0000,0.0000,13.3,28.6,11111222
Chevron,ioos:station:wmo:42876:1,2021-10-02T07:27:00Z,0.0000,0.0000,12.9,28.6,11111222
Chevron,ioos:station:wmo:42876:1,2021-10-02T07:37:00Z,0.0000,0.0000,13.0,28.6,11111222
Chevron,ioos:station:wmo:42876:1,2021-10-02T07:47:00Z,0.0000,0.0000,12.7,28.6,11111222
Chevron,ioos:station:wmo:42876:1,2021-10-02T07:57:00Z,0.0000,0.0000,12.5,28.6,11111222
Chevron,ioos:station:wmo:42876:1,2021-10-02T08:07:00Z,0.0000,0.0000,12.5,28.6,11111222
Chevron,ioos:station:wmo:42876:1,2021-10-02T08:17:00Z,0.0000,0.0000,12.9,28.6,11111222
Chevron,ioos:station:wmo:42876:1,2021-10-02T08:27:00Z,0.0000,0.0000,13.2,28.6,11111222
Chevron,ioos:station:wmo:42876:1,2021-10-02T08:37:00Z,0.0000,0.0000,13.1,28.6,11111222
Chevron,ioos:station:wmo:42876:1,2021-10-02T08:47:00Z,0.0000,0.0000,13.0,28.6,11111222
Chevron,ioos:station:wmo:42876:1,2021-10-02T08:57:00Z,0.0000,0.0000,12.7,28.6,11111222
Chevron,ioos:station:wmo:42876:1,2021-10-02T09:07:00Z,0.0000,0.0000,12.8,28.6,11111222
Chevron,ioos:station:wmo:42876:1,2021-10-02T09:17:00Z,0.0000,0.0000,13.0,28.6,11111222
Chevron,ioos:station:wmo:42876:1,2021-10-02T09:27:00Z,0.0000,0.0000,12.7,28.6,11111222
Chevron,ioos:station:wmo:42876:1,2021-10-02T09:37:00Z,0.0000,0.0000,12.3,28.6,11111222
Chevron,ioos:station:wmo:42876:1,2021-10-02T09:47:00Z,0.0000,0.0000,12.7,28.6,11111222
Chevron,ioos:station:wmo:42876:1,2021-10-02T09:57:00Z,0.0000,0.0000,13.1,28.6,11111222
Chevron,ioos:station:wmo:42876:1,2021-10-02T10:07:00Z,0.0000,0.0000,12.6,28.6,11111222
Chevron,ioos:station:wmo:42876:1,2021-10-02T10:17:00Z,0.0000,0.0000,12.6,28.6,11111222
Chevron,ioos:station:wmo:42876:1,2021-10-02T10:27:00Z,0.0000,0.0000,12.7,28.6,11111222
Chevron,ioos:station:wmo:42876:1,2021-10-02T10:37:00Z,0.0000,0.0000,12.8,28.6,11111222
Chevron,ioos:station:wmo:42876:1,2021-10-02T10:47:00Z,0.0000,0.0000,12.7,28.6,11111222
Chevron,ioos:station:wmo:42876:1,2021-10-02T10:57:00Z,0.0000,0.0000,12.8,28.6,11111222
Chevron,ioos:station:wmo:42876:1,2021-10-02T11:07:00Z,0.0000,0.0000,12.5,28.6,11111222
Chevron,ioos:station:wmo:42876:1,2021-10-02T11:17:00Z,0.0000,0.0000,12.6,28.6,11111222
Chevron,ioos:station:wmo:42876:1,2021-10-02T11:27:00Z,0.0000,0.0000,12.3,28.6,11111222
Chevron,ioos:station:wmo:42876:1,2021-10-02T11:37:00Z,0.0000,0.0000,12.5,28.6,11111222
Chevron,ioos:station:wmo:42876:1,2021-10-02T11:47:00Z,0.0000,0.0000,12.6,28.6,11111222
Chevron,ioos:station:wmo:42876:1,2021-10-02T11:57:00Z,0.0000,0.0000,12.2,28.6,11111222
Chevron,ioos:station:wmo:42876:1,2021-10-02T12:07:00Z,0.0000,0.0000,12.4,28.6,11111222
Chevron,ioos:station:wmo:42876:1,2021-10-02T12:17:00Z,0.0000,0.0000,12.3,28.6,11111222
Chevron,ioos:station:wmo:42876:1,2021-10-02T12:27:00Z,0.0000,0.0000,12.5,28.6,11111222
Chevron,ioos:station:wmo:42876:1,2021-10-02T12:37:00Z,0.0000,0.0000,12.7,28.7,11111222
Chevron,ioos:station:wmo:42876:1,2021-10-02T12:47:00Z,0.0000,0.0000,12.5,28.7,11111222
Chevron,ioos:station:wmo:42876:1,2021-10-02T12:57:00Z,0.0000,0.0000,12.4,28.7,11111222
Chevron,ioos:station:wmo:42876:1,2021-10-02T13:07:00Z,0.0000,0.0000,12.5,28.7,11111222
Chevron,ioos:station:wmo:42876:1,2021-10-02T13:17:00Z,0.0000,0.0000,12.5,28.7,11111222
Chevron,ioos:station:wmo:42876:1,2021-10-02T13:27:00Z,0.0000,0.0000,12.3,28.7,11111222
Chevron,ioos:station:wmo:42876:1,2021-10-02T13:37:00Z,0.0000,0.0000,12.2,28.7,11111222
Chevron,ioos:station:wmo:42876:1,2021-10-02T13:47:00Z,0.0000,0.0000,12.2,28.7,11111222
Chevron,ioos:station:wmo:42876:1,2021-10-02T13:57:00Z,0.0000,0.0000,12.4,28.7,11111222
Chevron,ioos:station:wmo:42876:1,2021-10-02T14:07:00Z,0.0000,0.0000,12.4,28.7,11111222
Chevron,ioos:station:wmo:42876:1,2021-10-02T14:17:00Z,0.0000,0.0000,12.2,28.7,11111222
Chevron,ioos:station:wmo:42876:1,2021-10-02T14:27:00Z,0.0000,0.0000,12.0,28.6,11111222
Chevron,ioos:station:wmo:42876:1,2021-10-02T14:37:00Z,0.0000,0.0000,12.3,28.6,11111222
Chevron,ioos:station:wmo:42876:1,2021-10-02T14:47:00Z,0.0000,0.0000,12.3,28.6,11111222
Chevron,ioos:station:wmo:42876:1,2021-10-02T14:57:00Z,0.0000,0.0000,12.7,28.6,11111222
Chevron,ioos:station:wmo:42876:1,2021-10-02T15:07:00Z,0.0000,0.0000,12.3,28.6,11111222
Chevron,ioos:station:wmo:42876:1,2021-10-02T15:17:00Z,0.0000,0.0000,12.3,28.6,11111222
Chevron,ioos:station:wmo:42876:1,2021-10-02T15:27:00Z,0.0000,0.0000,12.4,28.6,11111222
Chevron,ioos:station:wmo:42876:1,2021-10-02T15:37:00Z,0.0000,0.0000,12.0,28.6,11111222
Chevron,ioos:station:wmo:42876:1,2021-10-02T15:47:00Z,0.0000,0.0000,11.8,28.6,11111222
Chevron,ioos:station:wmo:42876:1,2021-10-02T15:57:00Z,0.0000,0.0000,12.0,28.6,11111222
Chevron,ioos:station:wmo:42876:1,2021-10-02T16:07:00Z,0.0000,0.0000,12.0,28.6,11111222
Chevron,ioos:station:wmo:42876:1,2021-10-02T16:17:00Z,0.0000,0.0000,12.1,28.6,11111222
Chevron,ioos:station:wmo:42876:1,2021-10-02T16:27:00Z,0.0000,0.0000,11.8,28.6,11111222
Chevron,ioos:station:wmo:42876:1,2021-10-02T16:37:00Z,0.0000,0.0000,11.7,28.6,11111222
Chevron,ioos:station:wmo:42876:1,2021-10-02T16:47:00Z,0.0000,0.0000,11.4,28.6,11111222
Chevron,ioos:station:wmo:42876:1,2021-10-02T16:57:00Z,0.0000,0.0000,11.3,28.7,11111222
Chevron,ioos:station:wmo:42876:1,2021-10-02T17:07:00Z,0.0000,0.0000,11.1,28.6,11111222
Chevron,ioos:station:wmo:42876:1,2021-10-02T17:17:00Z,0.0000,0.0000,11.2,28.6,11111222
Chevron,ioos:station:wmo:42876:1,2021-10-02T17:27:00Z,0.0000,0.0000,11.4,28.6,11111222
Chevron,ioos:station:wmo:42876:1,2021-10-02T17:37:00Z,0.0000,0.0000,11.3,28.6,11111222
Chevron,ioos:station:wmo:42876:1,2021-10-02T17:47:00Z,0.0000,0.0000,11.1,28.6,11111222
Chevron,ioos:station:wmo:42876:1,2021-10-02T17:57:00Z,0.0000,0.0000,11.4,28.6,11111222
Chevron,ioos:station:wmo:42876:1,2021-10-02T18:07:00Z,0.0000,0.0000,11.5,28.7,11111222
Chevron,ioos:station:wmo:42876:1,2021-10-02T18:17:00Z,0.0000,0.0000,11.2,28.7,11111222
Chevron,ioos:station:wmo:42876:1,2021-10-02T18:27:00Z,0.0000,0.0000,11.4,28.7,11111222
Chevron,ioos:station:wmo:42876:1,2021-10-02T18:37:00Z,0.0000,0.0000,10.9,28.7,11111222
Chevron,ioos:station:wmo:42876:1,2021-10-02T19:12:00Z,0.0000,0.0000,11.1,28.7,11111222
Chevron,ioos:station:wmo:42876:1,2021-10-02T19:22:00Z,0.0000,0.0000,11.2,28.7,11111222
Chevron,ioos:station:wmo:42876:1,2021-10-02T19:32:00Z,0.0000,0.0000,11.2,28.7,11111222
Chevron,ioos:station:wmo:42876:1,2021-10-02T19:42:00Z,0.0000,0.0000,11.6,28.7,11111222
Chevron,ioos:station:wmo:42876:1,2021-10-02T19:52:00Z,0.0000,0.0000,11.4,28.7,11111222
Chevron,ioos:station:wmo:42876:1,2021-10-02T20:02:00Z,0.0000,0.0000,11.5,28.7,11111222
Chevron,ioos:station:wmo:42876:1,2021-10-02T20:12:00Z,0.0000,0.0000,11.5,28.7,11111222
Chevron,ioos:station:wmo:42876:1,2021-10-02T20:22:00Z,0.0000,0.0000,11.3,28.7,11111222
Chevron,ioos:station:wmo:42876:1,2021-10-02T20:32:00Z,0.0000,0.0000,11.4,28.7,11111222
Chevron,ioos:station:wmo:42876:1,2021-10-02T20:42:00Z,0.0000,0.0000,11.2,28.7,11111222
Chevron,ioos:station:wmo:42876:1,2021-10-02T20:52:00Z,0.0000,0.0000,11.3,28.8,11111222
Chevron,ioos:station:wmo:42876:1,2021-10-02T21:02:00Z,0.0000,0.0000,11.2,28.8,11111222
Chevron,ioos:station:wmo:42876:1,2021-10-02T21:12:00Z,0.0000,0.0000,11.6,28.8,11111222
Chevron,ioos:station:wmo:42876:1,2021-10-02T21:22:00Z,0.0000,0.0000,11.2,28.8,11111222
Chevron,ioos:station:wmo:42876:1,2021-10-02T21:32:00Z,0.0000,0.0000,11.2,28.8,11111222
Chevron,ioos:station:wmo:42876:1,2021-10-02T21:42:00Z,0.0000,0.0000,11.1,28.9,11111222
Chevron,ioos:station:wmo:42876:1,2021-10-02T21:52:00Z,0.0000,0.0000,11.2,28.9,11111222
Chevron,ioos:station:wmo:42876:1,2021-10-02T22:02:00Z,0.0000,0.0000,11.2,28.9,11111222
Chevron,ioos:station:wmo:42876:1,2021-10-02T22:12:00Z,0.0000,0.0000,11.4,28.9,11111222
Chevron,ioos:station:wmo:42876:1,2021-10-02T22:22:00Z,0.0000,0.0000,11.1,28.8,11111222
Chevron,ioos:station:wmo:42876:1,2021-10-02T22:32:00Z,0.0000,0.0000,11.5,28.8,11111222